[[{"header":{"parameterUnit":"m.s-1","parameterCategory":1,"la1":30.2991,"la2":30.254,"lo1":-89.0895,"lo2":-89.0444,"dy":0.0017,"dx":0.0017,"nx":28,"ny":28,"refTime":"2024-09-03T03:00:00:Z","depth":0,"parameterNumber":2,"parameterNumberName":"U-component_of_WINDS"},"data":[0,0,0,0,0,0,0,0,0,0,0,0,0,0,0,0,0,0,0,0,0,0,0,0,0,0,0,0,0,0,0,0,0,0,0,0,0,0,0,0,0,0,0,0,0,0,0,0,0,0,0,0,0,0,0,0,0,0,-0.3664,-0.3663,0,-0.3635,-0.3635,-0.3635,-0.3647,-0.3648,-0.3649,-0.3649,-0.3619,-0.3618,-0.3616,0,0,0,0,0,0,0,0,0,0,0,0,0,-0.3726,-0.3725,-0.3664,-0.3663,-0.3663,-0.3636,-0.3635,-0.3635,-0.3647,-0.3648,-0.3649,-0.365,-0.362,-0.3618,-0.3616,0,0,0,0,0,0,0,0,0,0,0,0,0,-0.3699,-0.3725,-0.3664,-0.3666,-0.3666,-0.3636,-0.3635,-0.3635,-0.3647,-0.3648,-0.3649,-0.365,-0.362,-0.3618,-0.3616,-0.3582,0,0,-0.3609,-0.3608,0,0,0,0,0,0,0,0,-0.37,-0.3696,-0.3666,-0.3666,-0.3666,-0.3646,-0.3646,-0.3617,-0.3647,-0.3654,-0.3649,-0.3651,-0.3627,-0.3625,-0.3617,-0.358,-0.3579,-0.3609,-0.3608,-0.3607,-0.3606,0,0,0,0,0,0,0,-0.3702,-0.3698,-0.3653,-0.3666,-0.3665,-0.3668,-0.3665,-0.3641,-0.3635,-0.3654,-0.3654,-0.3651,-0.3627,-0.3619,-0.3616,-0.3578,-0.3609,-0.3607,-0.3606,-0.3605,-0.3509,-0.3508,0,0,0,0,0,0,-0.3704,-0.3699,-0.3653,-0.3652,-0.3686,-0.3666,-0.3663,-0.3651,-0.3635,-0.3634,-0.365,-0.3652,-0.3622,-0.3619,-0.3615,-0.3571,-0.3607,-0.3605,-0.3604,-0.351,-0.3509,-0.3507,0,0,0,0,0,0,-0.3706,-0.37,-0.3655,-0.3676,-0.367,-0.3663,-0.3651,-0.365,-0.3642,-0.3633,-0.3632,-0.3643,-0.3623,-0.3618,-0.3589,-0.3571,-0.3604,-0.3602,-0.3512,-0.351,-0.3508,-0.3485,0,0,0,0,0,0,-0.3707,-0.3701,-0.3688,-0.3675,-0.3669,-0.363,-0.365,-0.3649,-0.3638,-0.364,-0.3626,-0.3624,-0.3623,-0.3592,-0.3587,-0.3568,-0.36,-0.3513,-0.3511,-0.3508,-0.3487,-0.3482,-0.3478,0,0,0,0,0,-0.371,-0.3683,-0.3687,-0.3682,-0.3653,-0.3629,-0.3625,-0.3625,-0.3637,-0.3623,-0.3617,-0.3625,-0.3574,-0.3589,-0.3583,-0.3564,-0.3514,-0.3511,-0.3509,-0.3489,-0.3483,-0.3478,0,0,0,0,0,0,-0.3694,-0.3681,-0.3686,-0.3655,-0.3643,-0.3631,-0.3614,-0.3619,-0.3603,-0.3605,-0.3606,-0.3602,-0.3571,-0.3565,-0.3582,-0.3528,-0.3546,-0.3542,-0.3533,-0.3527,-0.3523,-0.3524,-0.3598,0,0,0,0,0,-0.3687,-0.3668,-0.3659,-0.3632,-0.3625,-0.3621,-0.361,-0.3611,-0.3598,-0.3593,-0.3585,-0.3572,-0.3553,-0.354,-0.3522,-0.3487,-0.3482,-0.347,-0.3466,-0.3462,-0.3458,-0.3436,-0.3429,-0.3498,-0.3498,-0.3498,0,0,-0.3672,-0.3663,-0.3651,-0.3628,-0.3619,-0.3599,-0.3616,-0.3595,-0.3579,-0.359,-0.3561,-0.3555,-0.354,-0.3507,-0.3492,-0.35,-0.3438,-0.3459,-0.3456,-0.3453,-0.3432,-0.3425,-0.342,-0.3496,-0.3496,-0.3497,0,0,-0.3633,-0.3626,-0.3601,-0.3591,-0.3577,-0.3574,-0.3568,-0.3555,-0.3551,-0.3522,-0.3529,-0.351,-0.3478,-0.3466,-0.3456,-0.3412,-0.3417,-0.3406,-0.3382,-0.336,-0.3355,-0.335,-0.3331,-0.3325,-0.3403,-0.3402,-0.3402,0,-0.3616,-0.3587,-0.3588,-0.3565,-0.3554,-0.3563,-0.3537,-0.3527,-0.3507,-0.3499,-0.3509,-0.3467,-0.3458,-0.3421,-0.341,-0.3402,-0.3394,-0.3407,-0.3356,-0.3351,-0.3346,-0.3328,-0.3322,-0.3401,-0.3401,-0.3401,-0.3402,0,-0.3565,-0.3544,-0.3526,-0.3506,-0.3493,-0.3469,-0.3466,-0.3452,-0.3454,-0.3449,-0.3419,-0.3408,-0.3387,-0.3379,-0.3381,-0.3341,-0.3346,-0.3356,-0.3374,-0.3338,-0.3321,-0.3315,-0.3399,-0.3399,-0.34,-0.34,0,0,-0.3515,-0.3496,-0.3489,-0.3479,-0.3463,-0.3446,-0.3422,-0.3401,-0.3388,-0.3374,-0.3352,-0.3324,-0.3332,-0.3321,-0.3322,-0.3303,-0.3265,-0.3315,-0.3315,-0.3303,-0.3216,-0.3207,-0.3199,-0.3269,-0.3268,-0.3267,-0.3217,0,-0.3473,-0.3431,-0.3431,-0.339,-0.337,-0.3377,-0.3355,-0.3343,-0.3337,-0.3318,-0.3313,-0.3291,-0.3306,-0.3299,-0.3281,-0.3273,-0.3247,-0.3277,-0.3246,-0.3245,-0.3247,-0.3191,-0.3181,-0.3134,-0.321,-0.3209,-0.3209,0,-0.3419,-0.3402,-0.336,-0.3345,-0.3336,-0.3317,-0.3296,-0.3279,-0.3264,-0.3261,-0.3247,-0.325,-0.3224,-0.3244,-0.3205,-0.3226,-0.3214,-0.3208,-0.3206,-0.3201,-0.3223,-0.3181,-0.3119,-0.3111,-0.3199,-0.3199,-0.32,0,-0.3383,-0.335,-0.332,-0.3312,-0.3294,-0.328,-0.3272,-0.3258,-0.3245,-0.3227,-0.3218,-0.3197,-0.3185,-0.3169,-0.3166,-0.3181,-0.3126,-0.3147,-0.3121,-0.3121,-0.3107,-0.3107,-0.3039,-0.3104,-0.3104,-0.3104,-0.3104,0,-0.3335,-0.3308,-0.3303,-0.3284,-0.3253,-0.3254,-0.3223,-0.3216,-0.3203,-0.3182,-0.3188,-0.3168,-0.3166,-0.3145,-0.3142,-0.3109,-0.3105,-0.31,-0.3099,-0.3098,-0.3098,-0.3087,-0.3089,-0.3102,-0.3103,-0.3103,-0.3103,0,-0.3288,-0.3285,-0.3251,-0.3237,-0.3233,-0.3211,-0.3198,-0.3179,-0.3175,-0.3147,-0.3141,-0.3133,-0.3108,-0.3104,-0.3075,-0.3073,-0.3032,-0.3037,-0.3037,-0.3037,-0.301,-0.3011,-0.293,-0.2918,-0.2994,-0.2993,-0.2993,0,-0.3256,-0.3235,-0.3219,-0.3205,-0.3196,-0.3174,-0.316,-0.3159,-0.3144,-0.3125,-0.3107,-0.3083,-0.3063,-0.3023,-0.3014,-0.2991,-0.2992,-0.2966,-0.2989,-0.2987,-0.2988,-0.2988,-0.2984,-0.296,-0.2959,-0.2959,-0.2958,0,-0.3199,-0.3198,-0.3178,-0.3156,-0.3139,-0.3123,-0.3107,-0.3095,-0.3092,-0.3075,-0.3049,-0.3034,-0.3003,-0.2978,-0.2955,-0.2945,-0.295,-0.2951,-0.2943,-0.294,-0.294,-0.2936,-0.3021,-0.2952,-0.2953,-0.2953,-0.2954,-0.2954,-0.3156,-0.3137,-0.3122,-0.3098,-0.3086,-0.3071,-0.3051,-0.3044,-0.3023,-0.2998,-0.2999,-0.297,-0.2953,-0.2923,-0.2912,-0.2888,-0.2896,-0.2886,-0.2883,-0.2879,-0.2875,-0.2946,-0.2884,-0.2884,-0.2885,-0.2885,-0.2885,0,-0.3096,-0.3086,-0.3065,-0.3042,-0.3023,-0.3031,-0.3014,-0.2997,-0.2971,-0.2956,-0.2936,-0.2905,-0.288,-0.2869,-0.2844,-0.2827,-0.2828,-0.282,-0.2819,-0.2816,-0.2871,-0.2878,-0.2819,-0.2819,-0.2819,-0.2819,-0.2819,-0.2819,-0.3062,-0.3029,-0.3026,-0.2986,-0.2976,-0.2948,-0.2937,-0.2922,-0.2909,-0.2874,-0.2853,-0.2847,-0.2832,-0.2806,-0.2782,-0.278,-0.2769,-0.2759,-0.2756,-0.2807,-0.2813,-0.2819,-0.2826,-0.2757,-0.2757,-0.2704,-0.2703,-0.2703]},{"header":{"parameterUnit":"m.s-1","parameterCategory":1,"la1":30.2991,"la2":30.254,"lo1":-89.0895,"lo2":-89.0444,"dy":0.0017,"dx":0.0017,"nx":28,"ny":28,"refTime":"2024-09-03T03:00:00:Z","depth":0,"parameterNumber":3,"parameterNumberName":"V-component_of_WINDS"},"data":[0,0,0,0,0,0,0,0,0,0,0,0,0,0,0,0,0,0,0,0,0,0,0,0,0,0,0,0,0,0,0,0,0,0,0,0,0,0,0,0,0,0,0,0,0,0,0,0,0,0,0,0,0,0,0,0,0,0,-2.5152,-2.5152,0,-2.5179,-2.518,-2.518,-2.5188,-2.5188,-2.5188,-2.5187,-2.5213,-2.5213,-2.5214,0,0,0,0,0,0,0,0,0,0,0,0,0,-2.5103,-2.5104,-2.5152,-2.5152,-2.5152,-2.5179,-2.518,-2.518,-2.5188,-2.5188,-2.5188,-2.5187,-2.5212,-2.5213,-2.5214,0,0,0,0,0,0,0,0,0,0,0,0,0,-2.5127,-2.5104,-2.5152,-2.516,-2.5161,-2.5179,-2.518,-2.518,-2.5188,-2.5188,-2.5188,-2.5187,-2.5212,-2.5213,-2.5214,-2.5226,0,0,-2.5218,-2.5219,0,0,0,0,0,0,0,0,-2.5125,-2.5128,-2.5158,-2.5159,-2.516,-2.518,-2.5172,-2.5195,-2.5188,-2.5178,-2.5187,-2.5187,-2.5202,-2.5204,-2.5209,-2.5227,-2.5228,-2.5218,-2.5219,-2.5219,-2.522,0,0,0,0,0,0,0,-2.5124,-2.5127,-2.5162,-2.5159,-2.516,-2.5161,-2.5164,-2.5176,-2.519,-2.5178,-2.5179,-2.5182,-2.5202,-2.5208,-2.521,-2.5228,-2.5218,-2.5219,-2.522,-2.522,-2.5256,-2.5256,0,0,0,0,0,0,-2.5121,-2.5126,-2.5162,-2.5163,-2.5142,-2.5162,-2.5165,-2.5174,-2.519,-2.5193,-2.5183,-2.5183,-2.5206,-2.5209,-2.5211,-2.5225,-2.5219,-2.5221,-2.5221,-2.5256,-2.5256,-2.5256,0,0,0,0,0,0,-2.512,-2.5124,-2.5161,-2.5145,-2.5149,-2.5163,-2.5172,-2.5174,-2.518,-2.5193,-2.5196,-2.5186,-2.5206,-2.5209,-2.5222,-2.5226,-2.5221,-2.5222,-2.5256,-2.5256,-2.5256,-2.5253,0,0,0,0,0,0,-2.5118,-2.5124,-2.5129,-2.5145,-2.515,-2.5172,-2.5173,-2.5175,-2.5183,-2.5183,-2.5197,-2.5199,-2.5206,-2.522,-2.5223,-2.5227,-2.5223,-2.5255,-2.5256,-2.5256,-2.5253,-2.5254,-2.5254,0,0,0,0,0,-2.5117,-2.5127,-2.5129,-2.5134,-2.5157,-2.5173,-2.5176,-2.5184,-2.5183,-2.5188,-2.5196,-2.5199,-2.5225,-2.5222,-2.5225,-2.523,-2.5255,-2.5256,-2.5256,-2.5253,-2.5254,-2.5254,0,0,0,0,0,0,-2.511,-2.5129,-2.5132,-2.5147,-2.5158,-2.5174,-2.518,-2.5184,-2.5195,-2.5195,-2.5204,-2.5207,-2.5219,-2.5226,-2.5221,-2.5241,-2.524,-2.5241,-2.5236,-2.5237,-2.5237,-2.5235,-2.5224,0,0,0,0,0,-2.511,-2.5122,-2.5138,-2.515,-2.5155,-2.5167,-2.5174,-2.5179,-2.5191,-2.5195,-2.5204,-2.5214,-2.5225,-2.5231,-2.5241,-2.5254,-2.5257,-2.5259,-2.5259,-2.526,-2.526,-2.5267,-2.5268,-2.5258,-2.5258,-2.5258,0,0,-2.5111,-2.5123,-2.5129,-2.5149,-2.5158,-2.5169,-2.5171,-2.5182,-2.519,-2.5196,-2.5209,-2.5216,-2.5228,-2.5241,-2.5247,-2.5247,-2.5264,-2.526,-2.526,-2.5261,-2.5268,-2.5269,-2.5269,-2.5259,-2.5258,-2.5258,0,0,-2.5118,-2.5128,-2.5139,-2.5149,-2.5163,-2.517,-2.5173,-2.5188,-2.5193,-2.5207,-2.5211,-2.522,-2.5238,-2.5246,-2.5253,-2.5262,-2.5265,-2.5265,-2.5267,-2.5273,-2.5274,-2.5275,-2.5278,-2.5279,-2.5266,-2.5266,-2.5266,0,-2.5117,-2.5134,-2.5144,-2.5156,-2.5164,-2.5171,-2.5181,-2.5189,-2.5206,-2.521,-2.521,-2.5233,-2.5241,-2.5255,-2.5258,-2.5263,-2.5265,-2.5264,-2.5273,-2.5274,-2.5275,-2.5278,-2.5279,-2.5266,-2.5266,-2.5266,-2.5266,0,-2.5132,-2.5144,-2.5151,-2.5168,-2.5176,-2.5187,-2.5198,-2.5205,-2.521,-2.5217,-2.523,-2.524,-2.5253,-2.5256,-2.5261,-2.5271,-2.5271,-2.5272,-2.5271,-2.5276,-2.5278,-2.528,-2.5266,-2.5266,-2.5266,-2.5266,0,0,-2.5135,-2.5157,-2.516,-2.5167,-2.5183,-2.5192,-2.5203,-2.5216,-2.5222,-2.5232,-2.5241,-2.5256,-2.5257,-2.5264,-2.5269,-2.5275,-2.5281,-2.5275,-2.5276,-2.5276,-2.5293,-2.5292,-2.5293,-2.5283,-2.5283,-2.5284,-2.5292,0,-2.5144,-2.5165,-2.5174,-2.519,-2.5201,-2.5207,-2.5217,-2.5227,-2.5234,-2.5243,-2.525,-2.5261,-2.5261,-2.5266,-2.5272,-2.5279,-2.5285,-2.5279,-2.529,-2.5291,-2.5287,-2.5294,-2.5293,-2.53,-2.5293,-2.5293,-2.5293,0,-2.5157,-2.5169,-2.5186,-2.5201,-2.5206,-2.5214,-2.5226,-2.5235,-2.5247,-2.5251,-2.5259,-2.5264,-2.5275,-2.5273,-2.5287,-2.5283,-2.5288,-2.5292,-2.5293,-2.5294,-2.5292,-2.5295,-2.5303,-2.5304,-2.5295,-2.5295,-2.5295,0,-2.5157,-2.5177,-2.519,-2.5196,-2.5214,-2.5219,-2.5226,-2.5238,-2.5245,-2.5255,-2.526,-2.5271,-2.5277,-2.5285,-2.5292,-2.529,-2.5305,-2.5304,-2.5308,-2.5308,-2.5311,-2.5311,-2.5319,-2.5315,-2.5315,-2.5315,-2.5315,0,-2.5166,-2.5176,-2.5191,-2.5199,-2.521,-2.522,-2.523,-2.5238,-2.5248,-2.5256,-2.5262,-2.527,-2.528,-2.5288,-2.5294,-2.5304,-2.5307,-2.531,-2.5312,-2.531,-2.5309,-2.5313,-2.5313,-2.5315,-2.5315,-2.5315,-2.5315,0,-2.5168,-2.5178,-2.5193,-2.5208,-2.5212,-2.522,-2.5232,-2.524,-2.5247,-2.5258,-2.5261,-2.5272,-2.5282,-2.5291,-2.5304,-2.5308,-2.5319,-2.532,-2.5315,-2.5316,-2.5319,-2.5319,-2.533,-2.5332,-2.5327,-2.5327,-2.5327,0,-2.5172,-2.5181,-2.5197,-2.5204,-2.5211,-2.5222,-2.5229,-2.5239,-2.5246,-2.5259,-2.5265,-2.5276,-2.5286,-2.5302,-2.531,-2.532,-2.5322,-2.5325,-2.5324,-2.5321,-2.5322,-2.5321,-2.5322,-2.5326,-2.5326,-2.5326,-2.5326,0,-2.5179,-2.5184,-2.5195,-2.5208,-2.5217,-2.5227,-2.5237,-2.5242,-2.5253,-2.5261,-2.5272,-2.528,-2.5294,-2.5305,-2.5316,-2.5322,-2.5325,-2.5326,-2.5328,-2.5326,-2.5322,-2.5324,-2.5315,-2.5326,-2.5326,-2.5326,-2.5326,-2.5326,-2.5183,-2.519,-2.5203,-2.5215,-2.5224,-2.5233,-2.5241,-2.5249,-2.5259,-2.5272,-2.5277,-2.5288,-2.5298,-2.5314,-2.532,-2.5328,-2.5329,-2.5331,-2.5331,-2.5332,-2.5331,-2.5321,-2.533,-2.533,-2.533,-2.533,-2.5331,0,-2.519,-2.5198,-2.5209,-2.5224,-2.5233,-2.5237,-2.5248,-2.5255,-2.5265,-2.5275,-2.5285,-2.5297,-2.5307,-2.5317,-2.5327,-2.5332,-2.5334,-2.5335,-2.5334,-2.5335,-2.5331,-2.5328,-2.5333,-2.5333,-2.5333,-2.5333,-2.5333,-2.5333,-2.5194,-2.5207,-2.5213,-2.523,-2.5238,-2.5251,-2.5257,-2.5265,-2.5273,-2.5287,-2.5296,-2.5303,-2.5312,-2.5323,-2.5332,-2.5335,-2.5338,-2.5338,-2.5341,-2.5336,-2.5336,-2.5335,-2.5333,-2.5339,-2.5339,-2.5345,-2.5345,-2.5345]}]]